THOR ABLE DEB (YO)

Satellite information

Favourite Embed

Satellite Type and Status

DEBRISIN ORBIT

Key statistics

Satellite THOR ABLE DEB (YO) at a glance.

Uptime

23912

Days in orbit

Revolutions

≈ 15.0

Per day

Orbit

LEO

Low Earth Orbit

Inclination

48.2

Latest

Satellite identification and parameters

Extended collection of information and parameters for THOR ABLE DEB (YO).

Object identification

Identified? True

Debris? True

Object name: THOR ABLE DEB (YO)

International designator: 1960-002D

Object number (NORAD): 115

Object ID (CCSDS): 115

Country: UNITED STATES OF AMERICA (US)

Current information (Y/N): Y

RCS size: SMALL

Orbital parameters

Period: 96.275 minutes

Inclination: 48.1647 deg

SMA: 6958.276 km

Apoapsis: 598.52 km

Periapsis: 561.761 km

RAAN: 0.9956 deg

Eccentricy: 0.0026414

Argument of periapsis: 110.7834 deg

Mean anomaly: 249.5916 deg

Mean motion: 14.95719987 rev/day

Mean motion (dot): 0.00002504 rev/day2

B* drag term: 0.00024272034 1/REarth

Two-line elements (TLE)

Creation date: Sept. 18, 2025, 3:57 a.m.

Reference frame: TEME

Reference center: EARTH

Epoch: Sept. 17, 2025, 8:15 a.m. UTC

TLE line 0: 0 THOR ABLE DEB (YO)

TLE line 1: 1 00115U 60002D 25260.34436488 .00002504 00000-0 24272-3 0 9991

TLE line 2: 2 00115 48.1647 0.9956 0026414 110.7834 249.5916 14.95719987477250

Live tracking on map

Real-time ground track for satellite THOR ABLE DEB (YO).

In-orbit conjunctions

There are no conjunctions computed for THOR ABLE DEB (YO), at the moment. Check back to stay up to date, as we update our databases every day.

Go to all conjunctions

Associated space launch

TIROS-1 was the first successful low-Earth orbital weather satellite, and the first of a series of Television Infrared Observation Satellites.

THOR ABLE DEB (YO) was lifted into orbit during the mission ‘Thor Able II | Tiros 1’, on board a Thor Able II space rocket.

The launch took place on April 1, 1960, 11:40 a.m. from Space Launch Complex 17A.

For more information about the launch, click the button.

Launch to space Thor Able II | Tiros 1
Thor Able II | Tiros 1

Agency: N/A

Status: Launch Successful

Launch date: April 1, 1960, 11:40 a.m. UTC

Rocket: Thor Able II

Launch pad: Space Launch Complex 17A

Location: Cape Canaveral SFS, FL, USA

...

Latest news about this satellite

There are no fresh news available about this satellite. Check back as we update our databases every day.


Newsletter sign-up

Weekly statistics, charts and insights to help you stay on top of the space industry.